Location: Cambridge (historical)
(38.6883°N, 119.0140°W)
Time: 17:08:10
(UTC+00:00)

Cosmos 2292 Rocket - Pass Details

Date: 29 October 2020
Orbit: 381 x 1451 km, 83.0° (Epoch: 23 November)

Event Time Altitude Azimuth Distance (km) Brightness Sun altitude
Rises 13:47:12 0° 194° (SSW) 2,266 6.4 -7.1°
Reaches altitude 10° 13:49:04 10° 199° (SSW) 1,456 5.4 -6.7°
Maximum altitude 13:52:06 57° 280° (W) 529 2.9 -6.2°
Drops below altitude 10° 13:55:45 10° 359° (N) 1,754 5.8 -5.5°
Sets 13:58:11 0° 4° (N) 2,799 6.8 -5.0°
